{"data":{"norad_id":66526,"epoch":"2026-05-25T04:29:43.730016Z","epoch_age_seconds":48929,"freshness":"FRESH","line1":"1 66526U 25265L   26145.18731169  .00012901  00000+0  47734-3 0  9999","line2":"2 66526  42.9982 205.8403 0000575 266.2910  93.7876 15.27590602 28812","mean_motion":15.27590602,"eccentricity":5.75e-5,"inclination_deg":42.9982,"raan_deg":205.8403,"arg_perigee_deg":266.291,"mean_anomaly_deg":93.7876,"bstar":0.00047734,"rev_number":2881,"period_min":94.266094470251,"perigee_km":482.62283364608,"apogee_km":483.41186639634,"semimajor_km":6861.1543500212,"source":"CELESTRAK","updated_at":"2026-05-25T13:38:21.251282Z"}}